Date String (YYYY-MM-DD hh:mm:ss) UTC,Instrument flags,Ambient pressure (hPa),Sample flow (lpm),Bypass flow (lpm),Sample temperature (°C),Ambient temperature (°C),ASC tube jacket temperature (°C),LED temperature (°C),Box temperature (°C),Sample RH (%),Span deviation,Mass concentration (μg/m³),Mass concentration (μg/m³),Mass concentration (μg/m³)
DateTimeUTC,F1_M11,P_M11,Q1_M11,Q2_M11,T1_M11,T2_M11,T3_M11,T4_M11,T5_M11,U1_M11,ZSPAN_M11,X0_M11,X2_M11,X1_M11
2021-11-21 22:00:00,,0832.5,5.00,0.00,26.9,26.2,00.0,35.8,28.7,07.9,0000.0,0007.06,0001.92,0001.40
2021-11-21 22:01:00,,0832.5,5.01,0.00,26.9,26.2,00.0,35.8,28.7,07.9,0000.0,0007.06,0001.94,0001.40
2021-11-21 22:02:00,,0832.5,5.00,0.00,26.9,26.2,00.0,35.8,28.7,08.0,0000.0,0007.03,0001.94,0001.43
2021-11-21 22:03:00,,0832.5,4.99,0.00,26.9,26.3,00.0,35.8,28.7,07.9,0000.0,0006.36,0001.88,0001.44
2021-11-21 22:04:00,,0832.5,5.00,0.00,26.9,26.3,00.0,35.9,28.7,07.9,0000.0,0006.10,0001.90,0001.45
2021-11-21 22:05:00,,0832.5,5.01,0.00,26.9,26.3,00.0,35.9,28.7,07.9,0000.0,0005.90,0001.92,0001.46
2021-11-21 22:06:00,,0832.5,4.99,0.00,27.0,26.3,00.0,35.9,28.8,08.0,0000.0,0004.66,0001.92,0001.49
2021-11-21 22:07:00,,0832.5,5.01,0.00,27.0,26.3,00.0,35.9,28.8,08.0,0000.0,0004.28,0001.98,0001.57
2021-11-21 22:08:00,,0832.5,4.99,0.00,27.0,26.3,00.0,35.9,28.8,07.9,0000.0,0004.24,0001.98,0001.60
2021-11-21 22:09:00,,0832.5,5.01,0.00,27.0,26.3,00.0,35.9,28.8,07.9,0000.0,0004.15,0001.92,0001.57
2021-11-21 22:10:00,,0832.5,5.00,0.00,27.0,26.3,00.0,35.9,28.8,07.9,0000.0,0004.62,0001.96,0001.59
2021-11-21 22:11:00,,0832.5,4.97,0.00,27.0,26.4,00.0,35.9,28.8,07.8,0000.0,0005.24,0001.96,0001.61
2021-11-21 22:12:00,,0832.4,5.02,0.00,27.0,26.4,00.0,35.9,28.8,07.8,0000.0,0006.51,0001.99,0001.63
2021-11-21 22:13:00,,0832.4,5.00,0.00,27.0,26.4,00.0,35.9,28.8,07.8,0000.0,0006.65,0001.96,0001.61
2021-11-21 22:14:00,,0832.3,4.98,0.00,27.0,26.4,00.0,35.9,28.9,07.6,0000.0,0006.88,0001.98,0001.60
2021-11-21 22:15:00,,0832.3,5.01,0.00,27.1,26.4,00.0,36.0,28.9,07.3,0000.0,0006.51,0001.95,0001.58
2021-11-21 22:16:00,,0832.3,5.00,0.00,27.1,26.4,00.0,36.0,28.9,07.2,0000.0,0006.71,0001.90,0001.54
2021-11-21 22:17:00,,0832.4,4.99,0.00,27.1,26.4,00.0,36.0,28.9,07.1,0000.0,0006.87,0001.89,0001.49
2021-11-21 22:18:00,,0832.4,5.00,0.00,27.1,26.4,00.0,36.0,28.9,07.0,0000.0,0006.83,0001.79,0001.39
2021-11-21 22:19:00,,0832.4,5.00,0.00,27.1,26.4,00.0,36.0,28.9,06.8,0000.0,0007.03,0001.71,0001.30
2021-11-21 22:20:00,,0832.3,5.00,0.00,27.1,26.5,00.0,36.0,28.9,06.8,0000.0,0007.01,0001.69,0001.25
2021-11-21 22:21:00,,0832.3,4.99,0.00,27.1,26.5,00.0,36.0,29.0,06.8,0000.0,0006.44,0001.61,0001.19
2021-11-21 22:22:00,,0832.4,5.01,0.00,27.1,26.5,00.0,36.0,29.0,06.9,0000.0,0005.96,0001.57,0001.13
2021-11-21 22:23:00,,0832.3,4.99,0.00,27.2,26.5,00.0,36.0,29.0,06.9,0000.0,0005.04,0001.51,0001.08
2021-11-21 22:24:00,,0832.3,5.01,0.00,27.2,26.5,00.0,36.0,29.0,07.0,0000.0,0005.25,0001.48,0001.03
2021-11-21 22:25:00,,0832.3,4.99,0.00,27.2,26.5,00.0,36.1,29.0,07.0,0000.0,0006.25,0001.44,0001.00
2021-11-21 22:26:00,,0832.4,5.00,0.00,27.2,26.6,00.0,36.1,29.1,06.9,0000.0,0006.52,0001.44,0000.98
2021-11-21 22:27:00,,0832.4,5.00,0.00,27.2,26.6,00.0,36.1,29.1,06.7,0000.0,0006.63,0001.41,0000.97
2021-11-21 22:28:00,,0832.4,4.99,0.00,27.2,26.6,00.0,36.1,29.1,06.6,0000.0,0007.09,0001.39,0000.95
2021-11-21 22:29:00,,0832.4,5.01,0.00,27.2,26.6,00.0,36.1,29.1,06.6,0000.0,0007.59,0001.39,0000.95
2021-11-21 22:30:00,,0832.5,4.98,0.00,27.2,26.6,00.0,36.1,29.1,06.5,0000.0,0007.52,0001.41,0000.96
2021-11-21 22:31:00,,0832.5,5.01,0.00,27.2,26.6,00.0,36.1,29.0,06.3,0000.0,0007.56,0001.40,0000.95
2021-11-21 22:32:00,,0832.5,4.99,0.00,27.2,26.6,00.0,36.1,29.0,06.3,0000.0,0007.50,0001.37,0000.95
2021-11-21 22:33:00,,0832.5,5.00,0.00,27.2,26.6,00.0,36.1,29.0,06.3,0000.0,0007.63,0001.33,0000.94
2021-11-21 22:34:00,,0832.5,4.99,0.00,27.2,26.6,00.0,36.1,29.0,06.5,0000.0,0007.46,0001.32,0000.93
2021-11-21 22:35:00,,0832.4,5.01,0.00,27.2,26.6,00.0,36.1,29.1,06.5,0000.0,0008.06,0001.33,0000.91
2021-11-21 22:36:00,,0832.4,4.99,0.00,27.3,26.6,00.0,36.2,29.1,06.4,0000.0,0007.45,0001.28,0000.89
2021-11-21 22:37:00,,0832.4,5.00,0.00,27.3,26.6,00.0,36.2,29.1,06.6,0000.0,0007.07,0001.23,0000.87
2021-11-21 22:38:00,,0832.4,5.00,0.00,27.3,26.6,00.0,36.2,29.1,06.6,0000.0,0006.22,0001.24,0000.87
2021-11-21 22:39:00,,0832.4,5.00,0.00,27.3,26.6,00.0,36.2,29.2,06.5,0000.0,0005.58,0001.20,0000.86
2021-11-21 22:40:00,,0832.3,5.00,0.00,27.3,26.7,00.0,36.2,29.2,06.6,0000.0,0004.77,0001.23,0000.86
2021-11-21 22:41:00,,0832.3,5.00,0.00,27.4,26.7,00.0,36.2,29.2,06.6,0000.0,0005.04,0001.26,0000.85
2021-11-21 22:42:00,,0832.3,5.00,0.00,27.4,26.7,00.0,36.2,29.2,06.6,0000.0,0004.93,0001.26,0000.85
2021-11-21 22:43:00,,0832.3,4.99,0.00,27.4,26.7,00.0,36.3,29.3,06.4,0000.0,0004.96,0001.27,0000.86
2021-11-21 22:44:00,,0832.3,5.00,0.00,27.4,26.8,00.0,36.3,29.3,06.2,0000.0,0004.36,0001.28,0000.85
2021-11-21 22:45:00,,0832.3,5.01,0.00,27.4,26.8,00.0,36.3,29.3,06.1,0000.0,0004.09,0001.25,0000.85
2021-11-21 22:46:00,,0832.3,4.99,0.00,27.4,26.8,00.0,36.3,29.3,06.0,0000.0,0003.34,0001.22,0000.84
2021-11-21 22:47:00,,0832.3,5.00,0.00,27.5,26.8,00.0,36.3,29.3,06.0,0000.0,0002.78,0001.21,0000.84
2021-11-21 22:48:00,,0832.2,5.01,0.00,27.5,26.8,00.0,36.3,29.3,05.9,0000.0,0002.90,0001.20,0000.83
2021-11-21 22:49:00,,0832.2,4.98,0.00,27.5,26.9,00.0,36.3,29.3,05.9,0000.0,0002.80,0001.16,0000.81
2021-11-21 22:50:00,,0832.1,5.01,0.00,27.5,26.9,00.0,36.4,29.4,05.8,0000.0,0002.71,0001.16,0000.80
2021-11-21 22:51:00,,0832.1,4.99,0.00,27.5,26.9,00.0,36.4,29.4,05.8,0000.0,0002.62,0001.10,0000.78
2021-11-21 22:52:00,,0832.1,5.01,0.00,27.5,26.9,00.0,36.4,29.4,05.8,0000.0,0002.77,0001.03,0000.77
2021-11-21 22:53:00,,0832.1,4.99,0.00,27.5,26.9,00.0,36.4,29.4,05.9,0000.0,0002.76,0001.04,0000.75
2021-11-21 22:54:00,,0832.0,4.99,0.00,27.6,26.9,00.0,36.4,29.4,05.8,0000.0,0002.73,0001.02,0000.75
2021-11-21 22:55:00,,0832.1,5.00,0.00,27.6,26.9,00.0,36.4,29.4,05.8,0000.0,0003.45,0001.02,0000.75
2021-11-21 22:56:00,,0832.1,5.01,0.00,27.6,26.9,00.0,36.4,29.4,05.9,0000.0,0003.46,0001.02,0000.74
2021-11-21 22:57:00,,0832.1,5.00,0.00,27.6,26.9,00.0,36.4,29.4,05.9,0000.0,0003.14,0001.02,0000.74
2021-11-21 22:58:00,,0832.1,5.00,0.00,27.6,26.9,00.0,36.5,29.4,05.9,0000.0,0003.08,0001.01,0000.75
2021-11-21 22:59:00,,0832.1,5.01,0.00,27.6,26.9,00.0,36.5,29.4,05.9,0000.0,0003.02,0001.03,0000.75
